Weather in Danville

United States     36°35′09″N   79°23′43″W
temp.,
°C
wind,
m/s
gust,
m/s
humid.,
%
clouds,
%
prec.,
mm/h
press.,
hPa
HPBL,
m
12 may, wed
wed1223:00+13nnw22766 0.0 102043
02:00+12nne41163100 0.0 1022379
05:00+12ne51053100 0.0 1023812
08:00+9ne5952100 0.0 1026773
11:00+6ne3885100 1.0 1027553
14:00+7ne2573100 1.3 1026733
17:00+12nnw145397 0.0 1024902
20:00+9s246971 0.0 102499
13 may, thu
thu1323:00+6w22825 0.0 102530
02:00+5wnw11852 0.0 102611
05:00+5n12815 0.0 102613
08:00+10nne36635 0.0 1027247
11:00+17ne34410 0.0 10261525
14:00+20ne332991 0.0 10242845
17:00+20ne322899 0.0 10222675
20:00+14ese22575 0.0 102315
14 may, fri
fri1423:00+9ene116410 0.0 102511
02:00+8nne227843 0.1 102632
05:00+7n008743 0.1 102611
08:00+10n008163 0.1 1027131
11:00+18wsw015363 0.3 1026854
14:00+20sw014935 2.8 10251494
17:00+18wsw225297 0.2 10241608
20:00+12ssw24948 1.8 1025107
15 may, sat
sat1523:00+9wsw229564 0.0 102623
02:00+8n1196100 0.0 102614
05:00+8nw0195100 0.0 102610
08:00+11nnw118968 0.0 1027104
11:00+20n11506 0.0 10261003
14:00+24nnw123176 0.0 10242971
17:00+23se123040 0.0 10232612
20:00+17s2463100 0.0 102479
16 may, sun
sun1623:00+13sse2374100 0.0 102541
02:00+10sse1187100 0.0 102524
05:00+11sw1183100 0.0 102514
08:00+12ssw0086100 0.3 102715
11:00+14sw2589100 0.4 1027283
14:00+14ssw3792100 0.6 1026395
17:00+18ssw3569100 0.1 10251114
20:00+15ssw2691100 0.2 1025174